DELTA 1 DEB, 42564

Orbit data source: Space-Track

DELTA 1 DEB, 42564 is space debris in SSO originally from a launch on Sun, 23 Jul 1972 UTC launched from the Air Force Western Test Range (AFWTR). Debris objects in space refer to the collection of defunct objects orbiting the Earth. Examples of debris include non-operational satellites, rocket bodies, and fragments generated from explosions, collisions, or faulty payload assembly.

Loading next visibility...
Identifier
42564, 1972-058JX
Orbit
SSO
Country
Flag of USUS
Related business
Manufacturer
Unknown
Mission
Spacecraft
Bus & Motor
Unknown
Mass
Unknown
Launch date (UTC)
1972-07-23 (54 years ago)
Launch vehicle
Unknown
Launch site
Air Force Western Test Range (AFWTR)
Object type
Payload
Rocket body
Debris
Shape & HBR
Unknown shape, 0.1 m
Radar Cross Section
Small (<0.1 m²)

Expand to show TLE details & history
Last TLE update: 7 hours ago

TLE from 7 hours ago
0 DELTA 1 DEB
1 42564U 72058JX  26121.40251743  .00015227  00000-0  51650-2 0  9997
2 42564  99.0303  91.3246 0044784 264.5843 252.3589 14.36205056635416
Epoch: 2026-05-01T09:39Z
TLE epoch observation values (Epoch: 2026-05-01T09:39:37.505Z)
Latitude
23.25701°
Longitude
-89.02128°
Altitude
783.724 km
Speed
7.459 km/s
True Right ascension
18h 20m 52s
True Declination
23° 07' 59"
Sunlit
Object was in daylight at epoch
Visualization orbit readout
Latitude
Unknown
Longitude
Unknown
Altitude
Unknown
Speed
Unknown
Apparent Right ascension
Unknown
Apparent Declination
Unknown
Sunlit
N/A
Visualization observer readout
Local Sidereal Time
00:12:52
Azimuth
Unknown
Elevation
Unknown
Doppler factor
Unknown
Orbital elements
Apogee altitude
800.221 km
Perigee altitude
736.213 km
Semi-major axis
7,146.354 km
Eccentricity
0.00448
Inclination
99.0303°
RAAN
91.3246°
Arg. of periapsis
264.5843°
True anomaly
251.87068°
Mean anomaly
252.3589°
Eccentric anomaly
252.11471°
Mean motion
3.59266 °/min
Orbital period
100.2 mins
BSTAR
0.005165
Loading maneuver chart data...
Computing Atmospheric mass density...
Loading historical data...
Loading historical data...
Loading historical data...
Loading historical data...
Loading historical data...
Loading historical data...
Loading historical data...

Documentation

Showing up to 5 results
|